User: anonymous   Login
Location: Unspecified
(0.0000°N, 0.0000°E)
Time: 21:44:31
(UTC+00:00)
Language:

COSMOS 2483 - Orbit

View from above orbital plane
View from above orbital plane
View from above satellite
View from above satellite

Ground track
Ground track

The orbit data is extracted from the following two-line orbital elements,

1 39058U 13001B   17117.64548084 +.00000042 +00000-0 +22797-3 0  9992
2 39058 082.4978 134.8290 0017587 106.1814 254.1203 12.43944665194310
Epoch (UTC): 27 April 2017 15:29:29
Eccentricity: 0.0017587
inclination: 82.4978°
perigee height: 1476 km
apogee height: 1504 km
right ascension of ascending node: 134.8290°
argument of perigee: 106.1814°
revolutions per day: 12.43944665
mean anomaly at epoch: 254.1203°
orbit number at epoch: 19431

The dashed part of the orbit path shows where the satellite is in the earth's shadow,  

DLR